NOAA 16 DEB, 41706

Orbit data source: Space-Track

NOAA 16 DEB, 41706 is space debris in SSO originally from a launch on Thu, 21 Sep 2000 UTC launched from the Air Force Western Test Range (AFWTR). Debris objects in space refer to the collection of defunct objects orbiting the Earth. Examples of debris include non-operational satellites, rocket bodies, and fragments generated from explosions, collisions, or faulty payload assembly.

Loading next visibility...
Identifier
41706, 2000-055PL
Orbit
SSO
Country
Flag of USUS
Related business
Manufacturer
Unknown
Mission
Spacecraft
Bus & Motor
Unknown
Mass
Unknown
Launch date (UTC)
2000-09-21 (26 years ago)
Launch vehicle
Unknown
Launch site
Air Force Western Test Range (AFWTR)
Object type
Payload
Rocket body
Debris
Shape & HBR
Unknown shape, 0.1 m
Radar Cross Section
Small (<0.1 m²)

Expand to show TLE details & history
Last TLE update: 9 hours ago

TLE from 9 hours ago
0 NOAA 16 DEB
1 41706U 00055PL  26127.82726180  .00001727  00000-0  88528-3 0  9991
2 41706  98.6706 157.6415 0031774 318.1782  41.6965 14.16477960523441
Epoch: 2026-05-07T19:51Z
TLE epoch observation values (Epoch: 2026-05-07T19:51:15.419Z)
Latitude
-0.00004°
Longitude
-5.84056°
Altitude
823.11 km
Speed
7.45 km/s
True Right ascension
10h 30m 33s
True Declination
0° 00' 00"
Sunlit
Object was in daylight at epoch
Visualization orbit readout
Latitude
Unknown
Longitude
Unknown
Altitude
Unknown
Speed
Unknown
Apparent Right ascension
Unknown
Apparent Declination
Unknown
Sunlit
N/A
Visualization observer readout
Local Sidereal Time
13:07:45
Azimuth
Unknown
Elevation
Unknown
Doppler factor
Unknown
Orbital elements
Apogee altitude
857.367 km
Perigee altitude
811.533 km
Semi-major axis
7,212.587 km
Eccentricity
0.00318
Inclination
98.6706°
RAAN
157.6415°
Arg. of periapsis
318.1782°
True anomaly
41.93942°
Mean anomaly
41.6965°
Eccentric anomaly
41.81789°
Mean motion
3.54329 °/min
Orbital period
101.6 mins
BSTAR
0.00088528
Loading maneuver chart data...
Computing Atmospheric mass density...

Documentation

Showing up to 5 results
|